LogoCoinalyze
    Ad-Free Version Hauptseite Märkte Finanzierungsraten
    Futures-Daten
    • Aggregierte Daten (Coins)
    • Einzelne Charts
    • Globale Charts
    Preisalarme
    TA
    Bitcoin Ethereum BNB Ripple Tron ZCash Dogecoin Monero UNUS SED LEO Chainlink Cardano Stellar Lumens Bitcoin Cash Litecoin Hedera Cronos Polkadot Ethereum Classic Algorand Cosmos Quant VeChain Dash Bitcoin SV BitTorrent Terra Decred Tezos Iota The Graph THETA Decentraland NEO Chiliz MultiversX Basic Attention Token Golem Horizen Qtum 0x DigiByte Beam RIF Token FTX Token Holo FUNToken Ontology Zilliqa Siacoin Nano aelf Ravencoin Enjin Coin Mask Network Verge WINk Status Waves IoTeX iExec RLC Power Ledger Steem Kyber Network Crystal Lisk Ark IOST WOO Network Ardor WAX Icon Storj Wanchain Loopring Bitcoin Diamond AdEx Bitcoin Gold Augur OmiseGO NEM MonaCoin BitShares Ren V Systems Komodo Nuls Mithril SOLVE Maker Aion EOS Nebulas HedgeTrade Bread Fetch.ai TomoChain Polygon Fantom Waltonchain GXChain Bytom Metaverse ETP MaidSafeCoin QASH
    Bestellen nach:
    Mehr
    • API
    • Kerzenformationen
    • Spenden
    • Kontakt
    • Sitemap
    • Privacy Policy
    • Disclaimer
    • Theme:
    Deutsch
    • English
    • Français
    • Русский
    • Türkçe
    • Nederlands
    • Português (BR)
    • Español
    • 한국어
    • 简体中文
    • 日本語
     
    Anmelden / Registrieren
    Markets/ Pepe/ PEPE zu EUR/ PEPEEUR Bybit
    Trades
    WL
    Chat
    Stat
    Neuigkeiten
    ⦷
    AAA
    0.00000299 18490522.00000000 23:32:04
    0.00000299 3350567.00000000 23:30:30
    0.00000299 3199485.00000000 23:30:30
    0.00000299 19531465.00000000 23:29:20
    0.00000299 20815264.00000000 23:27:54
    0.00000298 20872224.00000000 23:27:53
    0.00000299 19523736.00000000 23:19:29
    0.00000299 20888369.00000000 23:16:08
    0.00000298 20896186.00000000 23:16:06
    0.00000299 20314312.00000000 23:12:10
    0.00000299 18090108.00000000 23:08:57
    0.00000299 20311264.00000000 23:04:13
    0.00000299 3217553.00000000 22:58:06
    0.00000299 3238577.00000000 22:58:06
    0.00000299 20423264.00000000 22:55:14
    0.00000300 20177604.00000000 22:54:19
    0.00000299 18672699.00000000 22:53:28
    0.00000300 18664899.00000000 22:49:47
    0.00000300 18919261.00000000 22:49:45
    0.00000299 20613216.00000000 22:47:34
    0.00000299 20784472.00000000 22:47:28
    0.00000299 650448.00000000 22:47:25
    0.00000298 21441031.00000000 22:45:06
    0.00000298 3286567.00000000 22:25:00
    0.00000298 3215395.00000000 22:25:00
    0.00000298 35967891.00000000 22:19:26
    0.00000298 12709416.00000000 22:19:26
    0.00000298 12709416.00000000 22:19:26
    0.00000299 7816172.00000000 21:37:37
    0.00000300 16303566.00000000 21:27:24
    0.00000300 2752619.00000000 21:27:24
    0.00000300 3226837.00000000 21:25:46
    0.00000300 16309653.00000000 21:25:46
    0.00000300 15386407.00000000 21:25:39
    0.00000298 3406202.00000000 21:19:52
    0.00000299 2455447.00000000 21:19:52
    0.00000298 14736647.00000000 21:19:27
    0.00000299 21272325.00000000 21:15:11
    0.00000299 21256213.00000000 21:14:38
    0.00000299 21288905.00000000 21:14:37
    0.00000299 21297061.00000000 21:14:35
    0.00000303 21313105.00000000 21:14:33
    0.00000299 21342758.00000000 21:14:32
    0.00000299 7820082.00000000 21:10:18
    0.00000300 18460489.00000000 21:04:38
    0.00000301 7372089.00000000 21:03:40
    0.00000301 10327022.00000000 21:03:40
    0.00000301 13769363.00000000 21:03:40
    0.00000301 27251864.00000000 21:03:40
    0.00000301 27251864.00000000 21:03:40
    0.00000301 17996248.00000000 21:01:24
    0.00000301 27267508.00000000 21:01:24
    0.00000300 7339254.00000000 20:50:02
    0.00000300 21570319.00000000 20:50:02
    0.00000300 28760425.00000000 20:50:02
    0.00000300 1398773.00000000 20:47:23
    0.00000301 2573603.00000000 20:34:12
    0.00000301 3232153.00000000 20:34:12
    0.00000301 3295110.00000000 20:31:38
    0.00000301 19473081.00000000 20:14:48
    0.00000301 19473081.00000000 20:14:48
    0.00000301 18022945.00000000 20:01:38
    0.00000301 27251864.00000000 20:01:38
    0.00000300 2979714.00000000 19:54:42
    0.00000301 2998808.00000000 19:54:42
    0.00000301 21528108.00000000 19:48:38
    0.00000301 6304137.00000000 19:48:05
    0.00000302 2809825.00000000 19:00:30
    0.00000303 2451486.00000000 19:00:30
    0.00000302 2323435.00000000 18:56:25
    0.00000302 2970388.00000000 18:56:25
    0.00000301 2414616.00000000 18:51:48
    0.00000302 2535068.00000000 18:51:48
    0.00000301 10555731.00000000 18:50:49
    0.00000301 109687500.00000000 18:50:45
    0.00000301 7779761.00000000 18:50:41
    0.00000298 8690614.00000000 18:47:03
    0.00000298 15353418.00000000 18:47:03
    0.00000298 27230590.00000000 18:47:03
    0.00000298 3351842.00000000 18:46:25
    0.00000298 2794421.00000000 18:46:25
    0.00000299 14174139.00000000 18:28:01
    0.00000299 56969346.00000000 18:28:01
    0.00000299 3076829.00000000 18:26:35
    0.00000300 2401288.00000000 18:26:35
    0.00000300 2889588.00000000 18:18:20
    0.00000300 2715608.00000000 18:18:20
    0.00000300 2645484.00000000 18:17:49
    0.00000300 2321958.00000000 18:17:49
    0.00000301 20348381.00000000 18:03:02
    0.00000304 21222618.00000000 17:59:56
    0.00000300 2730416.00000000 17:57:11
    0.00000301 2446942.00000000 17:57:11
    0.00000302 21144610.00000000 17:57:00
    0.00000301 2955402.00000000 17:54:09
    0.00000301 2966745.00000000 17:54:09
    0.00000302 20141732.00000000 17:53:14
    0.00000303 16815574.00000000 17:50:07
    0.00000303 17432326.00000000 17:50:06
    0.00000302 2704871.00000000 17:48:37
    Abmelden
    AAA
    Hilfe
    🙂 🤣 😎 🤗 😛 😉 😜 🤑 🤔 😑 😴 😕 🙃 😲 😇 🙁 😢 😬 😟 😠 🕺 🏃 💪 ✌ 👌 👍 👎 👏 👋 🤝 🍺 🍻 🐋 🐟 🦈 🗽 🚄 ✈ 🛑 🚀 🏦 🌚 ⭐ 🌞 ⚡ 🏆 💰 💲 🔨 ❓ ❗ 💯 🔶 🏁
    ☺
    Anmelden oder Registrieren zum Chatten
    24 Stunden
    Veränderung
    -2.19%
    Volumen
    5,445,173,429
    Hoch
    0.00000312
    Tief
    0.00000298
    7 Tage
    Veränderung
    -13.67%
    Volumen
    130,930,060,681
    Hoch
    0.00000370
    Tief
    0.00000292
    30 Tage
    Veränderung
    +23.63%
    Volumen
    581,180,510,211
    Hoch
    0.00000388
    Tief
    0.00000220
    Pepe price rallies 25% as whale demand and futures interest surge
    Key takeaways Pepe has gained 25% this week, including a combined 22% advance over the previous two days. Seven whale transactions worth more than $1 million each occurred Thursday, the highest...
    coinjournal.net
    Aug 21, 2026 08:41
    PEPE Supply on Exchanges Just Took a Massive Hit – What’s Next?
    A drop in PEPE exchange balances has added to bullish expectations despite muted trader interest.
    cryptopotato.com
    Aug 6, 2026 20:02
    PEPE Exchange Outflows Hit Nearly 2-Year High as Whales Accumulate
    Pepe (PEPE) recorded its largest single-day exchange outflow since November 2024, with 4.54 trillion tokens leaving trading platforms, signaling that holders are moving supply away from immediate...
    beincrypto.com
    Aug 6, 2026 04:57
    Meme Coin Based on White House Shooter Conspiracy Rallies 320%
    $HENRY surged 300% after a 2023 Pepe tweet appeared to name the White House shooter, fueling a viral time-travel meme. The post Meme Coin Based on White House Shooter Conspiracy Rallies 320%...
    beincrypto.com
    Apr 27, 2026 16:11
    PEPE surges 4% as market sentiment improves, eyes Key resistance breakout
    Key takeaways Pepe extends gains on Wednesday, stretching its rally from the 50-day EMA. Derivatives data show heightened retail activity as risk-on sentiment returns to the market. Pepe (PEPE) is...
    coinjournal.net
    Apr 22, 2026 11:44
    Why The PEPE Price Could Stage A 55X Rally To Reach New $0.0001 ATH
    The PEPE price has now started to edge back into bullish conversations after the recent inflows into the crypto market. The last time PEPE’s weekly chart printed the kind of structure now...
    newsbtc.com
    Apr 21, 2026 15:30
    Pepe (PEPE) surges 9%, drawing interest from whales
    Key takeaways PEPE is up 9% in the last 24 hours, making it one of the best performers among the top 50 cryptocurrencies by market cap. The rally comes amid renewed interest from whales and retail...
    coinjournal.net
    Apr 16, 2026 07:40
    Murad Says SPX6900 (SPX) Is Primed for a Rally — Is He Right This Time?
    Crypto influencer Murad Mahmudov claims SPX6900 (SPX) is stabilizing at the same market cap level where Dogecoin (DOGE) and Pepe (PEPE) consolidated before their explosive rallies. The...
    beincrypto.com
    Apr 5, 2026 21:36
    The Shiba Inu Of This Cycle: Analyst Shares Why It Is Better To Buy PEPE Now
    In the bull market cycle of 2021-2022, the Shiba Inu meme coin made waves in a way that changed the face of meme coins forever. This came after Dogecoin’s initial 36,000% rally, and Shiba Inu...
    newsbtc.com
    Apr 4, 2026 07:30
    PEPE Explodes by 18% Amid Altcoin Rally, BTC Tapped $74K: Market Watch
    The frog-themed meme coin is today's biggest gainer, followed by TAO, DOT, and BONK.
    cryptopotato.com
    Mar 16, 2026 10:56
    Should PEPE traders brace for volatility as short squeeze potential builds?
    The memecoin market has seen its collective market capitalization drop by 48% over the past year, and 6.9% over the past month, according to CoinMarketCap. According to Glassnode, the memecoin...
    ambcrypto.com
    Mar 7, 2026 18:00
    Geben Sie einfach das Kommando im Chat ein. Ersetzen Sie dabei nick1 durch den jeweiligen Nick.
    • /ignore nick1 Einen Chat-User ignorieren
    • /unignore nick1 Einen Chat-User nicht mehr ignorieren
    • /ignorelist Ignorierte Chat-User anzeigen